| time (UTC) | temp F | wind direction | speed MPH | gust MPH | rain 1hr in | rain 24hr in | rain mn in | humidity % | barometer mb |
| 20260901204534 | 87 | 0 | 0.0 | 2.0 | 0.00 | 0.00 | 0.00 | 71 | 1014.6 |
| 20260901204018 | 87 | 0 | 0.0 | 2.0 | 0.00 | 0.00 | 0.00 | 74 | 1014.6 |
| 20260901203519 | 87 | 260 | 0.0 | 2.0 | 0.00 | 0.00 | 0.00 | 73 | 1014.6 |
| 20260901203038 | 87 | 0 | 0.0 | 2.0 | 0.00 | 0.00 | 0.00 | 72 | 1014.6 |
| 20260901202518 | 87 | 0 | 0.0 | 2.0 | 0.00 | 0.00 | 0.00 | 73 | 1014.6 |
| 20260901202018 | 87 | 0 | 0.0 | 2.0 | 0.00 | 0.00 | 0.00 | 72 | 1014.7 |
| 20260901201539 | 87 | 0 | 1.0 | 2.0 | 0.00 | 0.00 | 0.00 | 72 | 1014.7 |
| 20260901201018 | 87 | 252 | 0.0 | 2.0 | 0.00 | 0.00 | 0.00 | 73 | 1014.7 |
| 20260901200521 | 86 | 284 | 0.0 | 3.0 | 0.00 | 0.00 | 0.00 | 75 | 1014.6 |
| 20260901200034 | 86 | 262 | 0.0 | 3.0 | 0.00 | 0.00 | 0.00 | 74 | 1014.6 |
| 20260901195516 | 86 | 0 | 0.0 | 1.0 | 0.00 | 0.01 | 0.00 | 74 | 1014.6 |
| 20260901195021 | 86 | 0 | 0.0 | 3.0 | 0.00 | 0.01 | 0.00 | 72 | 1014.8 |
| 20260901194540 | 86 | 267 | 0.0 | 3.0 | 0.00 | 0.01 | 0.00 | 72 | 1014.8 |
| 20260901194019 | 86 | 0 | 0.0 | 3.0 | 0.00 | 0.01 | 0.00 | 74 | 1014.8 |
| 20260901193519 | 86 | 0 | 0.0 | 3.0 | 0.00 | 0.01 | 0.00 | 73 | 1014.9 |
| 20260901193037 | 86 | 275 | 1.0 | 3.0 | 0.00 | 0.01 | 0.00 | 74 | 1015.0 |
| 20260901192516 | 86 | 0 | 0.0 | 2.0 | 0.00 | 0.01 | 0.00 | 75 | 1015.0 |
| 20260901192016 | 86 | 0 | 0.0 | 3.0 | 0.00 | 0.01 | 0.00 | 76 | 1015.0 |
| 20260901191537 | 85 | 0 | 0.0 | 3.0 | 0.00 | 0.01 | 0.00 | 76 | 1015.0 |
| 20260901191019 | 85 | 353 | 0.0 | 2.0 | 0.00 | 0.01 | 0.00 | 77 | 1015.1 |
| 20260901190516 | 85 | 0 | 0.0 | 2.0 | 0.00 | 0.01 | 0.00 | 78 | 1015.1 |
| 20260901190033 | 85 | 0 | 0.0 | 2.0 | 0.00 | 0.01 | 0.00 | 77 | 1015.1 |
| 20260901185520 | 85 | 0 | 0.0 | 3.0 | 0.00 | 0.01 | 0.00 | 77 | 1015.2 |
| 20260901185023 | 85 | 294 | 0.0 | 3.0 | 0.00 | 0.01 | 0.00 | 77 | 1015.3 |
| 20260901184534 | 85 | 0 | 0.0 | 1.0 | 0.00 | 0.01 | 0.00 | 76 | 1015.3 |
| 20260901184019 | 85 | 0 | 0.0 | 2.0 | 0.00 | 0.01 | 0.00 | 78 | 1015.3 |
| 20260901183517 | 85 | 0 | 0.0 | 4.0 | 0.00 | 0.01 | 0.00 | 79 | 1015.2 |
| 20260901183036 | 85 | 0 | 1.0 | 4.0 | 0.00 | 0.01 | 0.00 | 74 | 1015.2 |
| 20260901182517 | 85 | 260 | 0.0 | 4.0 | 0.00 | 0.01 | 0.00 | 76 | 1015.3 |
| 20260901182017 | 85 | 0 | 1.0 | 4.0 | 0.00 | 0.01 | 0.00 | 79 | 1015.3 |
| 20260901181540 | 84 | 0 | 0.0 | 4.0 | 0.00 | 0.01 | 0.00 | 76 | 1015.4 |
| 20260901181016 | 84 | 197 | 1.0 | 4.0 | 0.00 | 0.01 | 0.00 | 76 | 1015.3 |
| 20260901180519 | 83 | 0 | 0.0 | 3.0 | 0.00 | 0.01 | 0.00 | 80 | 1015.3 |
| 20260901180037 | 82 | 0 | 0.0 | 3.0 | 0.00 | 0.01 | 0.00 | 81 | 1015.2 |
| 20260901175520 | 82 | 0 | 0.0 | 3.0 | 0.00 | 0.03 | 0.00 | 79 | 1015.1 |
| 20260901175019 | 83 | 258 | 0.0 | 2.0 | 0.00 | 0.03 | 0.00 | 80 | 1015.2 |
| 20260901174534 | 83 | 0 | 0.0 | 3.0 | 0.00 | 0.03 | 0.00 | 79 | 1015.1 |
| 20260901174020 | 83 | 218 | 0.0 | 3.0 | 0.00 | 0.03 | 0.00 | 78 | 1015.1 |
| 20260901173517 | 83 | 161 | 0.0 | 2.0 | 0.00 | 0.03 | 0.00 | 79 | 1015.2 |
| 20260901173039 | 83 | 247 | 0.0 | 2.0 | 0.00 | 0.03 | 0.00 | 77 | 1015.2 |
| 20260901172519 | 83 | 0 | 0.0 | 1.0 | 0.00 | 0.03 | 0.00 | 80 | 1015.2 |
| 20260901172020 | 83 | 0 | 0.0 | 2.0 | 0.00 | 0.03 | 0.00 | 79 | 1015.2 |
| 20260901171546 | 83 | 266 | 0.0 | 2.0 | 0.00 | 0.03 | 0.00 | 77 | 1015.2 |
| 20260901171018 | 83 | 291 | 0.0 | 2.0 | 0.00 | 0.03 | 0.00 | 79 | 1015.2 |
| 20260901170519 | 83 | 0 | 0.0 | 2.0 | 0.00 | 0.03 | 0.00 | 80 | 1015.2 |
| 20260901170100 | 83 | 0 | 0.0 | 2.0 | 0.00 | 0.03 | 0.00 | 77 | 1015.2 |
| 20260901165518 | 83 | 0 | 0.0 | 1.0 | 0.00 | 0.16 | 0.00 | 81 | 1015.2 |
| 20260901165018 | 82 | 0 | 0.0 | 1.0 | 0.00 | 0.16 | 0.00 | 79 | 1015.3 |
| 20260901164541 | 82 | 0 | 0.0 | 1.0 | 0.00 | 0.16 | 0.00 | 81 | 1015.3 |
| 20260901164019 | 82 | 0 | 0.0 | 1.0 | 0.00 | 0.16 | 0.00 | 79 | 1015.3 |
| 20260901163518 | 83 | 0 | 0.0 | 2.0 | 0.00 | 0.16 | 0.00 | 79 | 1015.4 |
| 20260901163042 | 82 | 291 | 0.0 | 2.0 | 0.00 | 0.16 | 0.00 | 79 | 1015.4 |
| 20260901162522 | 82 | 270 | 0.0 | 3.0 | 0.00 | 0.16 | 0.00 | 78 | 1015.6 |
| 20260901162017 | 83 | 185 | 0.0 | 3.0 | 0.00 | 0.16 | 0.00 | 79 | 1015.5 |
| 20260901161534 | 82 | 281 | 1.0 | 3.0 | 0.00 | 0.16 | 0.00 | 77 | 1015.5 |
| 20260901161020 | 82 | 0 | 0.0 | 3.0 | 0.00 | 0.16 | 0.00 | 77 | 1015.4 |
| 20260901160516 | 82 | 256 | 1.0 | 3.0 | 0.00 | 0.16 | 0.00 | 79 | 1015.4 |
| 20260901160044 | 82 | 0 | 0.0 | 2.0 | 0.00 | 0.16 | 0.00 | 78 | 1015.4 |
| 20260901155516 | 82 | 0 | 0.0 | 2.0 | 0.00 | 0.22 | 0.00 | 77 | 1015.4 |
| 20260901155016 | 82 | 0 | 0.0 | 0.0 | 0.00 | 0.22 | 0.00 | 80 | 1015.4 |
| 20260901154537 | 82 | 0 | 0.0 | 0.0 | 0.00 | 0.22 | 0.00 | 82 | 1015.4 |
| 20260901154018 | 81 | 0 | 0.0 | 0.0 | 0.00 | 0.22 | 0.00 | 77 | 1015.3 |
| 20260901153517 | 81 | 0 | 0.0 | 0.0 | 0.00 | 0.22 | 0.00 | 78 | 1015.3 |
| 20260901153036 | 81 | 0 | 0.0 | 0.0 | 0.00 | 0.22 | 0.00 | 80 | 1015.4 |
| 20260901152517 | 80 | 0 | 0.0 | 0.0 | 0.00 | 0.22 | 0.00 | 83 | 1015.5 |
| 20260901152021 | 80 | 0 | 0.0 | 0.0 | 0.00 | 0.22 | 0.00 | 83 | 1015.5 |
| 20260901151535 | 80 | 0 | 0.0 | 0.0 | 0.00 | 0.22 | 0.00 | 80 | 1015.4 |
| 20260901151017 | 80 | 0 | 0.0 | 0.0 | 0.00 | 0.22 | 0.00 | 84 | 1015.5 |
| 20260901150517 | 79 | 0 | 0.0 | 0.0 | 0.00 | 0.22 | 0.00 | 81 | 1015.3 |
| 20260901150053 | 79 | 0 | 0.0 | 0.0 | 0.00 | 0.22 | 0.00 | 82 | 1015.4 |
| 20260901145518 | 79 | 0 | 0.0 | 0.0 | 0.00 | 0.22 | 0.00 | 83 | 1015.4 |
| 20260901145016 | 78 | 0 | 0.0 | 0.0 | 0.00 | 0.22 | 0.00 | 85 | 1015.4 |
| 20260901144543 | 78 | 0 | 0.0 | 0.0 | 0.00 | 0.22 | 0.00 | 85 | 1015.4 |
| 20260901144017 | 78 | 0 | 0.0 | 0.0 | 0.00 | 0.22 | 0.00 | 85 | 1015.4 |
| 20260901143518 | 77 | 0 | 0.0 | 0.0 | 0.00 | 0.22 | 0.00 | 85 | 1015.3 |
| 20260901143035 | 77 | 0 | 0.0 | 0.0 | 0.00 | 0.22 | 0.00 | 86 | 1015.4 |
| 20260901142520 | 77 | 0 | 0.0 | 0.0 | 0.00 | 0.22 | 0.00 | 86 | 1015.3 |
| 20260901142017 | 77 | 0 | 0.0 | 0.0 | 0.00 | 0.22 | 0.00 | 87 | 1015.4 |
| 20260901141533 | 77 | 0 | 0.0 | 0.0 | 0.00 | 0.22 | 0.00 | 86 | 1015.4 |
| 20260901141019 | 76 | 0 | 0.0 | 0.0 | 0.00 | 0.22 | 0.00 | 87 | 1015.3 |
| 20260901140515 | 76 | 0 | 0.0 | 0.0 | 0.00 | 0.22 | 0.00 | 87 | 1015.3 |
| 20260901140037 | 76 | 0 | 0.0 | 0.0 | 0.00 | 0.22 | 0.00 | 87 | 1015.3 |
| 20260901135518 | 76 | 0 | 0.0 | 0.0 | 0.00 | 0.22 | 0.00 | 86 | 1015.2 |
| 20260901135016 | 76 | 0 | 0.0 | 0.0 | 0.00 | 0.22 | 0.00 | 88 | 1015.3 |
| 20260901134541 | 75 | 0 | 0.0 | 0.0 | 0.00 | 0.22 | 0.00 | 90 | 1015.3 |
| 20260901134021 | 74 | 0 | 0.0 | 0.0 | 0.00 | 0.22 | 0.00 | 90 | 1015.3 |
| 20260901133517 | 74 | 0 | 0.0 | 0.0 | 0.00 | 0.22 | 0.00 | 90 | 1015.3 |
| 20260901133032 | 74 | 0 | 0.0 | 0.0 | 0.00 | 0.22 | 0.00 | 92 | 1015.3 |
| 20260901132519 | 73 | 0 | 0.0 | 0.0 | 0.00 | 0.22 | 0.00 | 92 | 1015.4 |
| 20260901132017 | 73 | 0 | 0.0 | 0.0 | 0.00 | 0.22 | 0.00 | 93 | 1015.5 |
| 20260901131543 | 73 | 0 | 0.0 | 0.0 | 0.00 | 0.22 | 0.00 | 94 | 1015.5 |
| 20260901131019 | 72 | 0 | 0.0 | 0.0 | 0.00 | 0.22 | 0.00 | 95 | 1015.6 |
| 20260901130516 | 72 | 0 | 0.0 | 0.0 | 0.00 | 0.22 | 0.00 | 95 | 1015.6 |
| 20260901130036 | 71 | 0 | 0.0 | 0.0 | 0.00 | 0.22 | 0.00 | 95 | 1015.6 |
| 20260901125516 | 71 | 0 | 0.0 | 0.0 | 0.00 | 0.24 | 0.00 | 95 | 1015.7 |
| 20260901125017 | 71 | 0 | 0.0 | 0.0 | 0.00 | 0.24 | 0.00 | 95 | 1015.8 |
| 20260901124536 | 71 | 0 | 0.0 | 0.0 | 0.00 | 0.24 | 0.00 | 95 | 1015.7 |
| 20260901124018 | 70 | 0 | 0.0 | 0.0 | 0.00 | 0.24 | 0.00 | 95 | 1015.7 |
| 20260901123518 | 70 | 0 | 0.0 | 0.0 | 0.00 | 0.24 | 0.00 | 95 | 1015.7 |
| 20260901123039 | 70 | 0 | 0.0 | 0.0 | 0.00 | 0.24 | 0.00 | 95 | 1015.7 |
| 20260901122518 | 70 | 0 | 0.0 | 0.0 | 0.00 | 0.24 | 0.00 | 95 | 1015.5 |
| 20260901122019 | 69 | 0 | 0.0 | 0.0 | 0.00 | 0.24 | 0.00 | 95 | 1015.5 |
| 20260901121537 | 69 | 0 | 0.0 | 0.0 | 0.00 | 0.24 | 0.00 | 95 | 1015.6 |
| 20260901121019 | 69 | 0 | 0.0 | 0.0 | 0.00 | 0.24 | 0.00 | 94 | 1015.4 |
| 20260901120516 | 69 | 0 | 0.0 | 0.0 | 0.00 | 0.24 | 0.00 | 94 | 1015.4 |
| 20260901120034 | 69 | 0 | 0.0 | 0.0 | 0.00 | 0.24 | 0.00 | 94 | 1015.4 |
| 20260901115517 | 68 | 0 | 0.0 | 0.0 | 0.00 | 0.36 | 0.00 | 94 | 1015.3 |
| 20260901115019 | 68 | 0 | 0.0 | 0.0 | 0.00 | 0.36 | 0.00 | 94 | 1015.3 |
| 20260901114541 | 68 | 0 | 0.0 | 0.0 | 0.00 | 0.36 | 0.00 | 94 | 1015.2 |
| 20260901114019 | 68 | 0 | 0.0 | 0.0 | 0.00 | 0.36 | 0.00 | 93 | 1015.2 |
| 20260901113519 | 68 | 0 | 0.0 | 0.0 | 0.00 | 0.36 | 0.00 | 93 | 1015.1 |
| 20260901113033 | 68 | 0 | 0.0 | 0.0 | 0.00 | 0.36 | 0.00 | 93 | 1015.1 |
| 20260901112515 | 68 | 0 | 0.0 | 0.0 | 0.00 | 0.36 | 0.00 | 93 | 1015.1 |
| 20260901112021 | 68 | 0 | 0.0 | 0.0 | 0.00 | 0.36 | 0.00 | 93 | 1014.9 |
| 20260901111540 | 68 | 0 | 0.0 | 0.0 | 0.00 | 0.36 | 0.00 | 93 | 1015.0 |
| 20260901111015 | 68 | 0 | 0.0 | 0.0 | 0.00 | 0.36 | 0.00 | 93 | 1015.0 |
| 20260901110515 | 68 | 0 | 0.0 | 0.0 | 0.00 | 0.36 | 0.00 | 93 | 1014.9 |
| 20260901110036 | 68 | 0 | 0.0 | 0.0 | 0.00 | 0.36 | 0.00 | 92 | 1014.9 |
| 20260901105520 | 68 | 0 | 0.0 | 0.0 | 0.00 | 0.77 | 0.00 | 92 | 1014.9 |
| 20260901105017 | 68 | 0 | 0.0 | 0.0 | 0.00 | 0.77 | 0.00 | 92 | 1014.9 |
| 20260901104547 | 68 | 0 | 0.0 | 0.0 | 0.00 | 0.77 | 0.00 | 92 | 1014.8 |
| 20260901104022 | 68 | 0 | 0.0 | 0.0 | 0.00 | 0.77 | 0.00 | 92 | 1014.7 |
| 20260901103522 | 68 | 0 | 0.0 | 0.0 | 0.00 | 0.77 | 0.00 | 92 | 1014.8 |
| 20260901103040 | 68 | 0 | 0.0 | 0.0 | 0.00 | 0.77 | 0.00 | 92 | 1014.7 |
| 20260901102517 | 69 | 0 | 0.0 | 0.0 | 0.00 | 0.77 | 0.00 | 92 | 1014.7 |
| 20260901102015 | 69 | 0 | 0.0 | 0.0 | 0.00 | 0.77 | 0.00 | 92 | 1014.6 |
| 20260901101539 | 69 | 0 | 0.0 | 0.0 | 0.00 | 0.77 | 0.00 | 92 | 1014.6 |
| 20260901101019 | 69 | 0 | 0.0 | 0.0 | 0.00 | 0.77 | 0.00 | 92 | 1014.6 |
| 20260901100520 | 69 | 0 | 0.0 | 0.0 | 0.00 | 0.77 | 0.00 | 92 | 1014.5 |
| 20260901100044 | 69 | 0 | 0.0 | 0.0 | 0.00 | 0.77 | 0.00 | 92 | 1014.5 |
| 20260901095518 | 69 | 0 | 0.0 | 0.0 | 0.00 | 0.78 | 0.00 | 92 | 1014.5 |
| 20260901095019 | 69 | 0 | 0.0 | 0.0 | 0.00 | 0.78 | 0.00 | 91 | 1014.6 |
| 20260901094539 | 69 | 0 | 0.0 | 0.0 | 0.00 | 0.78 | 0.00 | 91 | 1014.6 |
| 20260901094018 | 69 | 0 | 0.0 | 0.0 | 0.00 | 0.78 | 0.00 | 91 | 1014.5 |
| 20260901093519 | 69 | 0 | 0.0 | 0.0 | 0.00 | 0.78 | 0.00 | 91 | 1014.5 |
| 20260901093039 | 70 | 0 | 0.0 | 0.0 | 0.00 | 0.78 | 0.00 | 91 | 1014.5 |
| 20260901092517 | 70 | 0 | 0.0 | 0.0 | 0.00 | 0.78 | 0.00 | 91 | 1014.5 |
| 20260901092016 | 70 | 0 | 0.0 | 0.0 | 0.00 | 0.78 | 0.00 | 91 | 1014.4 |
| 20260901091535 | 70 | 0 | 0.0 | 0.0 | 0.00 | 0.78 | 0.00 | 91 | 1014.3 |
| 20260901091020 | 70 | 0 | 0.0 | 0.0 | 0.00 | 0.78 | 0.00 | 91 | 1014.3 |
| 20260901090519 | 70 | 0 | 0.0 | 0.0 | 0.00 | 0.78 | 0.00 | 91 | 1014.2 |
| 20260901090036 | 70 | 0 | 0.0 | 0.0 | 0.00 | 0.78 | 0.00 | 91 | 1014.3 |
| 20260901085519 | 70 | 0 | 0.0 | 0.0 | 0.00 | 0.78 | 0.00 | 90 | 1014.2 |
| 20260901085017 | 70 | 0 | 0.0 | 0.0 | 0.00 | 0.78 | 0.00 | 91 | 1014.2 |
| 20260901084553 | 70 | 0 | 0.0 | 0.0 | 0.00 | 0.78 | 0.00 | 90 | 1014.2 |
| 20260901084019 | 70 | 0 | 0.0 | 0.0 | 0.00 | 0.78 | 0.00 | 90 | 1014.1 |
| 20260901083519 | 70 | 0 | 0.0 | 0.0 | 0.00 | 0.78 | 0.00 | 90 | 1014.1 |
| 20260901083036 | 70 | 0 | 0.0 | 0.0 | 0.00 | 0.78 | 0.00 | 90 | 1014.0 |
| 20260901082516 | 70 | 0 | 0.0 | 0.0 | 0.00 | 0.78 | 0.00 | 90 | 1014.1 |
| 20260901082020 | 70 | 0 | 0.0 | 0.0 | 0.00 | 0.78 | 0.00 | 90 | 1014.1 |
| 20260901081537 | 70 | 0 | 0.0 | 0.0 | 0.00 | 0.78 | 0.00 | 91 | 1014.0 |
| 20260901081017 | 70 | 0 | 0.0 | 0.0 | 0.00 | 0.78 | 0.00 | 91 | 1014.0 |
| 20260901080517 | 70 | 0 | 0.0 | 0.0 | 0.00 | 0.78 | 0.00 | 91 | 1014.1 |
| 20260901080042 | 70 | 0 | 0.0 | 0.0 | 0.00 | 0.78 | 0.00 | 91 | 1014.1 |
| 20260901075520 | 70 | 0 | 0.0 | 0.0 | 0.00 | 0.81 | 0.00 | 90 | 1014.1 |
| 20260901075018 | 70 | 0 | 0.0 | 0.0 | 0.00 | 0.81 | 0.00 | 90 | 1014.1 |
| 20260901074552 | 70 | 0 | 0.0 | 0.0 | 0.00 | 0.81 | 0.00 | 90 | 1014.1 |
| 20260901074019 | 70 | 0 | 0.0 | 0.0 | 0.00 | 0.81 | 0.00 | 90 | 1014.1 |
| 20260901073517 | 70 | 0 | 0.0 | 0.0 | 0.00 | 0.81 | 0.00 | 89 | 1014.2 |
| 20260901073034 | 70 | 0 | 0.0 | 0.0 | 0.00 | 0.81 | 0.00 | 89 | 1014.1 |
| 20260901072518 | 70 | 0 | 0.0 | 0.0 | 0.00 | 0.81 | 0.00 | 89 | 1014.1 |
| 20260901072018 | 70 | 0 | 0.0 | 0.0 | 0.00 | 0.81 | 0.00 | 89 | 1014.1 |
| 20260901071537 | 70 | 0 | 0.0 | 0.0 | 0.00 | 0.81 | 0.00 | 88 | 1014.1 |
| 20260901071018 | 70 | 0 | 0.0 | 0.0 | 0.00 | 0.81 | 0.00 | 88 | 1014.1 |
| 20260901070517 | 71 | 0 | 0.0 | 0.0 | 0.00 | 0.81 | 0.00 | 87 | 1014.1 |
| 20260901070040 | 71 | 0 | 0.0 | 0.0 | 0.00 | 0.81 | 0.00 | 87 | 1014.1 |
| 20260901065518 | 71 | 0 | 0.0 | 0.0 | 0.00 | 0.92 | 0.00 | 87 | 1014.1 |
| 20260901065022 | 71 | 0 | 0.0 | 0.0 | 0.00 | 0.92 | 0.00 | 86 | 1014.2 |
| 20260901064542 | 71 | 0 | 0.0 | 0.0 | 0.00 | 0.92 | 0.00 | 86 | 1014.3 |
| 20260901064017 | 71 | 0 | 0.0 | 0.0 | 0.00 | 0.92 | 0.00 | 86 | 1014.3 |
| 20260901063517 | 71 | 0 | 0.0 | 0.0 | 0.00 | 0.92 | 0.00 | 86 | 1014.4 |
| 20260901063049 | 71 | 0 | 0.0 | 0.0 | 0.00 | 0.92 | 0.00 | 86 | 1014.4 |
| 20260901062516 | 71 | 0 | 0.0 | 0.0 | 0.00 | 0.92 | 0.00 | 86 | 1014.6 |
| 20260901062018 | 71 | 0 | 0.0 | 0.0 | 0.00 | 0.92 | 0.00 | 86 | 1014.5 |
| 20260901061536 | 71 | 0 | 0.0 | 0.0 | 0.00 | 0.92 | 0.00 | 86 | 1014.4 |
| 20260901061018 | 71 | 0 | 0.0 | 0.0 | 0.00 | 0.92 | 0.00 | 86 | 1014.5 |
| 20260901060520 | 71 | 0 | 0.0 | 2.0 | 0.00 | 0.92 | 0.00 | 87 | 1014.6 |
| 20260901060038 | 71 | 0 | 0.0 | 2.0 | 0.00 | 0.92 | 0.00 | 88 | 1014.6 |
| 20260901055518 | 71 | 0 | 0.0 | 0.0 | 0.00 | 0.92 | 0.00 | 87 | 1014.7 |
| 20260901055017 | 70 | 0 | 0.0 | 0.0 | 0.00 | 0.92 | 0.00 | 88 | 1015.0 |
| 20260901054535 | 70 | 0 | 0.0 | 0.0 | 0.00 | 0.92 | 0.00 | 88 | 1015.0 |
| 20260901054018 | 70 | 0 | 0.0 | 0.0 | 0.00 | 0.92 | 0.00 | 89 | 1014.9 |
| 20260901053518 | 70 | 0 | 0.0 | 0.0 | 0.00 | 0.92 | 0.00 | 89 | 1015.0 |
| 20260901053050 | 70 | 0 | 0.0 | 0.0 | 0.00 | 0.92 | 0.00 | 89 | 1015.0 |
| 20260901052520 | 70 | 0 | 0.0 | 0.0 | 0.00 | 0.92 | 0.00 | 90 | 1015.1 |
| 20260901052017 | 70 | 0 | 0.0 | 0.0 | 0.00 | 0.92 | 0.00 | 90 | 1015.1 |
| 20260901051538 | 70 | 0 | 0.0 | 0.0 | 0.00 | 0.92 | 0.00 | 90 | 1015.0 |
| 20260901051020 | 70 | 0 | 0.0 | 0.0 | 0.00 | 0.92 | 0.00 | 90 | 1015.1 |
| 20260901050517 | 70 | 0 | 0.0 | 0.0 | 0.00 | 0.92 | 0.00 | 90 | 1015.0 |
| 20260901050034 | 70 | 0 | 0.0 | 0.0 | 0.00 | 0.92 | 0.00 | 90 | 1015.0 |
| 20260901045516 | 70 | 0 | 0.0 | 0.0 | 0.00 | 0.92 | 0.00 | 90 | 1015.1 |
| 20260901045015 | 70 | 0 | 0.0 | 0.0 | 0.00 | 0.92 | 0.00 | 90 | 1015.1 |
| 20260901044541 | 70 | 0 | 0.0 | 0.0 | 0.00 | 0.92 | 0.00 | 90 | 1015.0 |
| 20260901044017 | 70 | 0 | 0.0 | 0.0 | 0.00 | 0.92 | 0.00 | 90 | 1015.0 |
| 20260901043518 | 70 | 0 | 0.0 | 0.0 | 0.00 | 0.92 | 0.00 | 90 | 1015.2 |
| 20260901043045 | 70 | 0 | 0.0 | 0.0 | 0.00 | 0.92 | 0.00 | 90 | 1015.0 |
| 20260901042515 | 70 | 0 | 0.0 | 0.0 | 0.00 | 0.92 | 0.00 | 90 | 1015.1 |
| 20260901042020 | 70 | 0 | 0.0 | 0.0 | 0.00 | 0.92 | 0.00 | 90 | 1015.2 |
| 20260901041537 | 70 | 0 | 0.0 | 0.0 | 0.00 | 0.92 | 0.00 | 90 | 1015.1 |
| 20260901041018 | 70 | 0 | 0.0 | 0.0 | 0.00 | 0.92 | 0.00 | 90 | 1015.2 |
| 20260901040519 | 70 | 0 | 0.0 | 0.0 | 0.00 | 0.92 | 0.00 | 90 | 1015.3 |
| 20260901040034 | 70 | 0 | 0.0 | 0.0 | 0.00 | 0.92 | 0.00 | 90 | 1015.4 |
| 20260901035520 | 70 | 0 | 0.0 | 0.0 | 0.00 | 0.92 | 0.92 | 90 | 1015.5 |
| 20260901035020 | 70 | 0 | 0.0 | 0.0 | 0.00 | 0.92 | 0.92 | 91 | 1015.4 |
| 20260901034539 | 70 | 0 | 0.0 | 0.0 | 0.00 | 0.92 | 0.92 | 91 | 1015.5 |
| 20260901034018 | 70 | 0 | 0.0 | 0.0 | 0.00 | 0.92 | 0.92 | 90 | 1015.6 |
| 20260901033518 | 70 | 0 | 0.0 | 0.0 | 0.00 | 0.92 | 0.92 | 90 | 1015.7 |
| 20260901033048 | 71 | 0 | 0.0 | 0.0 | 0.00 | 0.92 | 0.92 | 90 | 1015.7 |
| 20260901032518 | 71 | 0 | 0.0 | 0.0 | 0.00 | 0.92 | 0.92 | 90 | 1015.7 |
| 20260901032020 | 71 | 0 | 0.0 | 0.0 | 0.00 | 0.92 | 0.92 | 90 | 1015.7 |
| 20260901031541 | 71 | 0 | 0.0 | 1.0 | 0.00 | 0.92 | 0.92 | 90 | 1015.7 |
| 20260901031017 | 71 | 0 | 0.0 | 1.0 | 0.00 | 0.92 | 0.92 | 90 | 1015.8 |
| 20260901030517 | 71 | 0 | 0.0 | 1.0 | 0.00 | 0.92 | 0.92 | 90 | 1015.7 |
| 20260901030034 | 71 | 0 | 0.0 | 0.0 | 0.00 | 0.92 | 0.92 | 90 | 1015.7 |
| 20260901025516 | 71 | 0 | 0.0 | 0.0 | 0.00 | 0.92 | 0.92 | 90 | 1015.7 |
| 20260901025017 | 71 | 0 | 0.0 | 0.0 | 0.00 | 0.92 | 0.92 | 90 | 1015.7 |
| 20260901024536 | 71 | 0 | 0.0 | 0.0 | 0.00 | 0.92 | 0.92 | 90 | 1015.7 |
| 20260901024019 | 71 | 0 | 0.0 | 0.0 | 0.00 | 0.92 | 0.92 | 90 | 1015.7 |
| 20260901023522 | 71 | 0 | 0.0 | 0.0 | 0.00 | 0.92 | 0.92 | 90 | 1015.6 |
| 20260901023048 | 71 | 0 | 0.0 | 0.0 | 0.00 | 0.92 | 0.92 | 89 | 1015.5 |
| 20260901022519 | 71 | 0 | 0.0 | 0.0 | 0.00 | 0.92 | 0.92 | 89 | 1015.5 |
| 20260901022017 | 71 | 0 | 0.0 | 0.0 | 0.00 | 0.92 | 0.92 | 89 | 1015.6 |
| 20260901021543 | 71 | 0 | 0.0 | 0.0 | 0.00 | 0.92 | 0.92 | 89 | 1015.6 |
| 20260901021019 | 71 | 0 | 0.0 | 1.0 | 0.00 | 0.92 | 0.92 | 90 | 1015.7 |
| 20260901020520 | 71 | 0 | 0.0 | 1.0 | 0.00 | 0.92 | 0.92 | 90 | 1015.6 |
| 20260901020041 | 71 | 0 | 0.0 | 1.0 | 0.00 | 0.92 | 0.92 | 90 | 1015.5 |
| 20260901015520 | 71 | 0 | 0.0 | 0.0 | 0.00 | 0.95 | 0.92 | 90 | 1015.6 |
| 20260901015017 | 71 | 0 | 0.0 | 0.0 | 0.00 | 0.95 | 0.92 | 90 | 1015.7 |
| 20260901014539 | 71 | 0 | 0.0 | 0.0 | 0.00 | 0.95 | 0.92 | 90 | 1015.7 |
| 20260901014019 | 71 | 0 | 0.0 | 0.0 | 0.00 | 0.95 | 0.92 | 90 | 1015.7 |
| 20260901013517 | 71 | 0 | 0.0 | 0.0 | 0.00 | 0.95 | 0.92 | 90 | 1015.7 |
| 20260901013040 | 71 | 0 | 0.0 | 0.0 | 0.00 | 0.95 | 0.92 | 90 | 1015.6 |
| 20260901012517 | 71 | 0 | 0.0 | 0.0 | 0.00 | 0.95 | 0.92 | 90 | 1015.6 |
| 20260901012015 | 71 | 0 | 0.0 | 0.0 | 0.00 | 0.95 | 0.92 | 90 | 1015.7 |
| 20260901011536 | 72 | 0 | 0.0 | 0.0 | 0.00 | 0.95 | 0.92 | 90 | 1015.7 |
| 20260901011019 | 72 | 0 | 0.0 | 0.0 | 0.00 | 0.95 | 0.92 | 90 | 1015.7 |
| 20260901010521 | 72 | 0 | 0.0 | 0.0 | 0.00 | 0.95 | 0.92 | 90 | 1015.7 |
| 20260901010038 | 72 | 0 | 0.0 | 1.0 | 0.00 | 0.95 | 0.92 | 90 | 1015.7 |
| 20260901005523 | 72 | 0 | 0.0 | 1.0 | 0.00 | 1.11 | 0.92 | 90 | 1015.6 |
| 20260901005020 | 72 | 0 | 0.0 | 0.0 | 0.00 | 1.11 | 0.92 | 90 | 1015.7 |
| 20260901004538 | 72 | 0 | 0.0 | 2.0 | 0.00 | 1.11 | 0.92 | 90 | 1015.7 |
| 20260901004018 | 72 | 0 | 0.0 | 2.0 | 0.00 | 1.11 | 0.92 | 90 | 1015.6 |
| 20260901003518 | 72 | 0 | 0.0 | 2.0 | 0.00 | 1.11 | 0.92 | 90 | 1015.6 |
| 20260901003038 | 72 | 0 | 0.0 | 1.0 | 0.00 | 1.11 | 0.92 | 91 | 1015.6 |
| 20260901002516 | 72 | 0 | 0.0 | 1.0 | 0.00 | 1.11 | 0.92 | 91 | 1015.7 |
| 20260901002018 | 72 | 0 | 0.0 | 1.0 | 0.00 | 1.11 | 0.92 | 91 | 1015.8 |
| 20260901001543 | 72 | 0 | 0.0 | 3.0 | 0.00 | 1.11 | 0.92 | 91 | 1015.8 |
| 20260901001018 | 73 | 0 | 0.0 | 3.0 | 0.00 | 1.11 | 0.92 | 91 | 1015.9 |
| 20260901000518 | 73 | 0 | 0.0 | 2.0 | 0.00 | 1.11 | 0.92 | 91 | 1016.0 |
| 20260901000044 | 73 | 0 | 0.0 | 1.0 | 0.00 | 1.11 | 0.92 | 91 | 1016.1 |
| 20260831235523 | 73 | 0 | 0.0 | 1.0 | 0.00 | 1.14 | 0.92 | 91 | 1016.1 |
| 20260831235018 | 73 | 0 | 0.0 | 1.0 | 0.00 | 1.14 | 0.92 | 91 | 1016.0 |
| 20260831234535 | 73 | 0 | 0.0 | 0.0 | 0.00 | 1.14 | 0.92 | 91 | 1016.1 |
| 20260831234017 | 73 | 0 | 0.0 | 0.0 | 0.00 | 1.14 | 0.92 | 91 | 1016.2 |
| 20260831233519 | 73 | 0 | 0.0 | 1.0 | 0.00 | 1.14 | 0.92 | 91 | 1016.2 |
| 20260831233036 | 73 | 0 | 0.0 | 1.0 | 0.00 | 1.14 | 0.92 | 91 | 1016.3 |
| 20260831232520 | 73 | 0 | 0.0 | 1.0 | 0.00 | 1.14 | 0.92 | 91 | 1016.4 |
| 20260831232016 | 73 | 0 | 0.0 | 0.0 | 0.00 | 1.14 | 0.92 | 91 | 1016.3 |
| 20260831231538 | 73 | 0 | 0.0 | 0.0 | 0.00 | 1.14 | 0.92 | 92 | 1016.2 |
| 20260831231018 | 73 | 0 | 0.0 | 0.0 | 0.00 | 1.14 | 0.92 | 91 | 1016.4 |
| 20260831230519 | 73 | 0 | 0.0 | 0.0 | 0.00 | 1.14 | 0.92 | 91 | 1016.6 |
| 20260831230033 | 73 | 0 | 0.0 | 0.0 | 0.00 | 1.14 | 0.92 | 91 | 1016.3 |
| 20260831225516 | 73 | 0 | 0.0 | 0.0 | 0.00 | 1.16 | 0.92 | 91 | 1016.3 |
| 20260831225017 | 73 | 0 | 0.0 | 0.0 | 0.00 | 1.16 | 0.92 | 91 | 1016.3 |
| 20260831224536 | 73 | 0 | 0.0 | 0.0 | 0.00 | 1.16 | 0.92 | 91 | 1016.3 |
| 20260831224016 | 73 | 0 | 0.0 | 0.0 | 0.00 | 1.16 | 0.92 | 91 | 1016.3 |
| 20260831223516 | 73 | 0 | 0.0 | 0.0 | 0.00 | 1.16 | 0.92 | 91 | 1016.4 |
| 20260831223035 | 73 | 0 | 0.0 | 0.0 | 0.00 | 1.16 | 0.92 | 91 | 1016.3 |
| 20260831222517 | 73 | 0 | 0.0 | 0.0 | 0.00 | 1.16 | 0.92 | 90 | 1016.4 |
| 20260831222019 | 73 | 0 | 0.0 | 0.0 | 0.00 | 1.16 | 0.92 | 90 | 1016.4 |
| 20260831221537 | 73 | 0 | 0.0 | 0.0 | 0.00 | 1.16 | 0.92 | 90 | 1016.3 |
| 20260831221020 | 74 | 0 | 0.0 | 0.0 | 0.00 | 1.16 | 0.92 | 90 | 1016.3 |
| 20260831220517 | 74 | 0 | 0.0 | 0.0 | 0.00 | 1.16 | 0.92 | 90 | 1016.4 |
| 20260831220034 | 74 | 0 | 0.0 | 0.0 | 0.00 | 1.16 | 0.92 | 90 | 1016.5 |
| 20260831215519 | 74 | 0 | 0.0 | 0.0 | 0.00 | 1.27 | 0.92 | 90 | 1016.4 |
| 20260831215017 | 74 | 0 | 0.0 | 0.0 | 0.00 | 1.27 | 0.92 | 90 | 1016.4 |
| 20260831214537 | 74 | 0 | 0.0 | 0.0 | 0.00 | 1.27 | 0.92 | 90 | 1016.2 |
| 20260831214019 | 74 | 0 | 0.0 | 0.0 | 0.00 | 1.27 | 0.92 | 89 | 1016.3 |
| 20260831213518 | 74 | 0 | 0.0 | 0.0 | 0.00 | 1.27 | 0.92 | 89 | 1016.3 |
| 20260831213036 | 74 | 0 | 0.0 | 0.0 | 0.00 | 1.27 | 0.92 | 89 | 1016.3 |
| 20260831212518 | 74 | 0 | 0.0 | 0.0 | 0.00 | 1.27 | 0.92 | 89 | 1016.3 |
| 20260831212018 | 74 | 0 | 0.0 | 0.0 | 0.00 | 1.27 | 0.92 | 90 | 1016.4 |
| 20260831211533 | 74 | 0 | 0.0 | 0.0 | 0.00 | 1.27 | 0.92 | 91 | 1016.3 |
| 20260831211017 | 74 | 0 | 0.0 | 0.0 | 0.00 | 1.27 | 0.92 | 91 | 1016.4 |
| 20260831210519 | 74 | 0 | 0.0 | 0.0 | 0.00 | 1.27 | 0.92 | 91 | 1016.2 |
| 20260831210036 | 74 | 0 | 0.0 | 0.0 | 0.00 | 1.27 | 0.92 | 92 | 1016.1 |
| 20260831205518 | 74 | 0 | 0.0 | 0.0 | 0.00 | 1.36 | 0.92 | 94 | 1016.2 |
| 20260831205018 | 74 | 0 | 0.0 | 0.0 | 0.00 | 1.36 | 0.92 | 95 | 1016.1 |